Location: Carrières
(48.9495°N, 2.0407°E)
Time: 23:48:05
(UTC+00:00)

Cosmos 1606 Rocket - Pass Details

Date: 25 June 2024
Orbit: 599 x 628 km, 82.5° (Epoch: 15 July)

Event Time Altitude Azimuth Distance (km) Brightness Sun altitude
Rises 23:59:57 0° 0° (N) 2,916 8.8 -17.7°
Reaches altitude 10° 00:02:37 10° 16° (NNE) 1,999 7.4 -17.6°
Maximum altitude 00:06:08 23° 68° (ENE) 1,340 5.5 -17.6°
Enters shadow 00:09:29 10° 120° (ESE) 1,943 5.8 -17.6°
